When you browse on this site, cookies collect data to enhance your experience and personalize the content and advertising you see.
Visit our Privacy Policy to learn more. By continuing to use the site, you agree to this use of cookies and data.
  • In Hungary
  • List of Countries
  • For 7 days
  • Water Temperature
  • Satellite Maps
  • Weather Map
  • News
  • Weather Widgets
  • user-avatar
    Login

    Hourly Weather Matu

    Today, 20 November, Tuesday

    Time Temperature Precipitation Wind Pressure Humidity
    00:00 +26°C° 0.7 mm 2 mps 757 mmHg 94%
    01:00 +25°C° 0 mm 2 mps 757 mmHg 96%
    02:00 +25°C° 0.2 mm 1 mps 757 mmHg 97%
    03:00 +25°C° 0.2 mm 1 mps 757 mmHg 97%
    04:00 +25°C° 0.2 mm 1 mps 757 mmHg 98%
    05:00 +26°C° 0.1 mm 1 mps 757 mmHg 95%
    06:00 +27°C° 0.1 mm 1 mps 757 mmHg 92%
    07:00 +28°C° 0 mm 1 mps 758 mmHg 89%
    08:00 +30°C° 0.3 mm 1 mps 757 mmHg 81%
    09:00 +31°C° 0.3 mm 1 mps 757 mmHg 72%
    10:00 +33°C° 0.3 mm 1 mps 757 mmHg 64%
    11:00 +34°C° 0.7 mm 2 mps 757 mmHg 69%
    12:00 +32°C° 0.7 mm 2 mps 756 mmHg 74%
    13:00 +31°C° 0 mm 2 mps 756 mmHg 79%
    14:00 +31°C° 0.4 mm 2 mps 756 mmHg 81%
    15:00 +30°C° 0.4 mm 2 mps 755 mmHg 83%
    16:00 +30°C° 0.4 mm 2 mps 755 mmHg 86%
    17:00 +29°C° 0.3 mm 2 mps 756 mmHg 88%
    18:00 +28°C° 0.3 mm 2 mps 756 mmHg 91%
    19:00 +27°C° 0.3 mm 2 mps 756 mmHg 94%
    20:00 +26°C° 0.5 mm 2 mps 757 mmHg 94%
    21:00 +26°C° 0.5 mm 2 mps 757 mmHg 95%
    22:00 +26°C° 0.5 mm 1 mps 757 mmHg 96%
    23:00 +26°C° 0.2 mm 1 mps 757 mmHg 96%

    Tomorrow, 21 November, Wednesday

    Time Temperature Precipitation Wind Pressure Humidity
    00:00 +26°C° 0.2 mm 1 mps 757 mmHg 97%
    01:00 +25°C° 0.2 mm 1 mps 756 mmHg 97%
    02:00 +25°C° 0.1 mm 1 mps 756 mmHg 97%
    03:00 +25°C° 0.1 mm 1 mps 756 mmHg 98%
    04:00 +25°C° 0.1 mm 1 mps 756 mmHg 98%
    05:00 +26°C° 0.1 mm 1 mps 756 mmHg 96%
    06:00 +27°C° 0.1 mm 1 mps 756 mmHg 94%
    07:00 +27°C° 0.1 mm 1 mps 757 mmHg 92%
    08:00 +30°C° 0 mm 1 mps 757 mmHg 80%
    09:00 +32°C° 0 mm 1 mps 757 mmHg 68%
    10:00 +35°C° 0 mm 1 mps 757 mmHg 56%
    11:00 +36°C° 0.1 mm 2 mps 757 mmHg 55%
    12:00 +36°C° 0.1 mm 2 mps 756 mmHg 54%
    13:00 +36°C° 0.1 mm 3 mps 755 mmHg 54%
    14:00 +35°C° 0.1 mm 3 mps 755 mmHg 58%
    15:00 +34°C° 0.1 mm 3 mps 754 mmHg 62%
    16:00 +33°C° 0.1 mm 3 mps 754 mmHg 67%
    17:00 +30°C° 0 mm 3 mps 755 mmHg 73%
    18:00 +29°C° 0 mm 2 mps 755 mmHg 80%
    19:00 +27°C° 0 mm 2 mps 756 mmHg 86%
    20:00 +27°C° 0 mm 2 mps 756 mmHg 88%
    21:00 +26°C° 0 mm 2 mps 757 mmHg 89%
    22:00 +26°C° 0 mm 1 mps 757 mmHg 90%
    23:00 +26°C° 0 mm 1 mps 757 mmHg 91%

    Day after tomorrow, 22 November, Thursday

    Time Temperature Precipitation Wind Pressure Humidity
    00:00 +26°C° 0 mm 1 mps 757 mmHg 92%
    01:00 +26°C° 0 mm 1 mps 756 mmHg 93%
    02:00 +25°C° 0 mm 1 mps 756 mmHg 94%
    03:00 +25°C° 0 mm 1 mps 756 mmHg 95%
    04:00 +25°C° 0 mm 1 mps 756 mmHg 96%
    05:00 +26°C° 0 mm 1 mps 756 mmHg 91%
    06:00 +27°C° 0 mm 1 mps 757 mmHg 87%
    07:00 +28°C° 0 mm 1 mps 757 mmHg 83%
    08:00 +30°C° 0 mm 1 mps 757 mmHg 73%
    09:00 +32°C° 0 mm 2 mps 757 mmHg 64%
    10:00 +35°C° 0 mm 2 mps 758 mmHg 54%
    11:00 +36°C° 0.1 mm 2 mps 757 mmHg 54%
    12:00 +36°C° 0.1 mm 3 mps 756 mmHg 53%
    13:00 +36°C° 0.1 mm 3 mps 755 mmHg 52%
    14:00 +35°C° 0.1 mm 3 mps 755 mmHg 58%
    15:00 +34°C° 0.1 mm 3 mps 755 mmHg 64%
    16:00 +33°C° 0.1 mm 3 mps 754 mmHg 70%
    17:00 +30°C° 0.2 mm 3 mps 755 mmHg 75%
    18:00 +29°C° 0.2 mm 3 mps 756 mmHg 80%
    19:00 +27°C° 0.2 mm 2 mps 757 mmHg 86%
    20:00 +27°C° 0.5 mm 2 mps 757 mmHg 88%
    21:00 +27°C° 0.5 mm 2 mps 758 mmHg 91%
    22:00 +26°C° 0.5 mm 2 mps 758 mmHg 93%
    23:00 +26°C° 0.8 mm 2 mps 758 mmHg 94%

    23 November, Friday

    Time Temperature Precipitation Wind Pressure Humidity
    00:00 +26°C° 0.8 mm 2 mps 757 mmHg 95%
    01:00 +26°C° 0.8 mm 2 mps 757 mmHg 95%
    02:00 +26°C° 0.4 mm 2 mps 757 mmHg 96%
    03:00 +26°C° 0.4 mm 2 mps 756 mmHg 96%
    04:00 +25°C° 0.4 mm 2 mps 756 mmHg 96%
    05:00 +26°C° 0 mm 2 mps 757 mmHg 94%
    06:00 +27°C° 0 mm 2 mps 757 mmHg 93%
    07:00 +27°C° 0 mm 2 mps 758 mmHg 91%
    08:00 +29°C° 0 mm 2 mps 758 mmHg 81%
    09:00 +31°C° 0 mm 2 mps 758 mmHg 70%
    10:00 +34°C° 0 mm 3 mps 758 mmHg 60%
    11:00 +34°C° 1 mm 3 mps 757 mmHg 65%
    12:00 +33°C° 1 mm 3 mps 757 mmHg 71%
    13:00 +33°C° 1 mm 3 mps 756 mmHg 76%
    14:00 +32°C° 1 mm 4 mps 756 mmHg 80%
    15:00 +30°C° 1 mm 4 mps 755 mmHg 84%
    16:00 +29°C° 1 mm 4 mps 755 mmHg 88%
    17:00 +28°C° 1.4 mm 3 mps 756 mmHg 90%
    18:00 +27°C° 1.4 mm 3 mps 757 mmHg 92%
    19:00 +26°C° 1.4 mm 3 mps 758 mmHg 95%
    20:00 +26°C° 1.5 mm 3 mps 758 mmHg 95%
    21:00 +26°C° 1.5 mm 3 mps 759 mmHg 96%
    22:00 +26°C° 1.5 mm 3 mps 759 mmHg 96%
    23:00 +26°C° 0.2 mm 3 mps 758 mmHg 96%

    24 November, Saturday

    Time Temperature Precipitation Wind Pressure Humidity
    00:00 +26°C° 0.2 mm 2 mps 758 mmHg 97%
    01:00 +26°C° 0.2 mm 2 mps 757 mmHg 97%
    02:00 +26°C° 0.1 mm 2 mps 757 mmHg 97%
    03:00 +26°C° 0.1 mm 2 mps 757 mmHg 98%
    04:00 +25°C° 0.1 mm 2 mps 757 mmHg 98%
    05:00 +26°C° 0 mm 2 mps 757 mmHg 97%
    06:00 +27°C° 0 mm 3 mps 757 mmHg 95%
    07:00 +27°C° 0 mm 3 mps 758 mmHg 94%
    08:00 +29°C° 0.4 mm 2 mps 758 mmHg 83%
    09:00 +31°C° 0.4 mm 2 mps 758 mmHg 72%
    10:00 +34°C° 0.4 mm 2 mps 758 mmHg 61%
    11:00 +35°C° 0.3 mm 3 mps 757 mmHg 58%
    12:00 +35°C° 0.3 mm 3 mps 756 mmHg 55%
    13:00 +36°C° 0.3 mm 3 mps 755 mmHg 52%
    14:00 +35°C° 0.1 mm 3 mps 755 mmHg 56%
    15:00 +34°C° 0.1 mm 3 mps 755 mmHg 61%
    16:00 +33°C° 0.1 mm 3 mps 755 mmHg 65%
    17:00 +31°C° 0.5 mm 3 mps 756 mmHg 72%
    18:00 +29°C° 0.5 mm 3 mps 756 mmHg 79%
    19:00 +27°C° 0.5 mm 3 mps 757 mmHg 86%
    20:00 +27°C° 0.5 mm 2 mps 757 mmHg 89%
    21:00 +27°C° 0.5 mm 2 mps 758 mmHg 91%
    22:00 +26°C° 0.5 mm 2 mps 758 mmHg 94%
    23:00 +26°C° 0.2 mm 2 mps 757 mmHg 94%

    25 November, Sunday

    Time Temperature Precipitation Wind Pressure Humidity
    00:00 +26°C° 0.2 mm 2 mps 757 mmHg 95%
    01:00 +26°C° 0.2 mm 2 mps 757 mmHg 95%
    02:00 +26°C° 0.4 mm 2 mps 756 mmHg 96%
    03:00 +26°C° 0.4 mm 2 mps 756 mmHg 96%
    04:00 +25°C° 0.4 mm 2 mps 756 mmHg 97%
    05:00 +26°C° 0.4 mm 2 mps 757 mmHg 95%
    06:00 +27°C° 0.4 mm 2 mps 757 mmHg 92%
    07:00 +28°C° 0.4 mm 2 mps 758 mmHg 89%
    08:00 +30°C° 0.3 mm 2 mps 758 mmHg 79%
    09:00 +32°C° 0.3 mm 2 mps 758 mmHg 69%
    10:00 +35°C° 0.3 mm 2 mps 758 mmHg 58%
    11:00 +35°C° 0.2 mm 2 mps 757 mmHg 57%
    12:00 +35°C° 0.2 mm 3 mps 756 mmHg 56%
    13:00 +36°C° 0.2 mm 3 mps 755 mmHg 55%
    14:00 +35°C° 0.3 mm 3 mps 755 mmHg 60%
    15:00 +34°C° 0.3 mm 3 mps 755 mmHg 65%
    16:00 +33°C° 0.3 mm 3 mps 755 mmHg 69%
    17:00 +30°C° 0.1 mm 2 mps 756 mmHg 75%
    18:00 +29°C° 0.1 mm 2 mps 756 mmHg 80%
    19:00 +27°C° 0.1 mm 1 mps 757 mmHg 86%
    20:00 +27°C° 0.5 mm 1 mps 757 mmHg 87%
    21:00 +27°C° 0.5 mm 1 mps 757 mmHg 88%
    22:00 +27°C° 0.5 mm 1 mps 758 mmHg 90%
    23:00 +26°C° 0 mm 1 mps 757 mmHg 91%
    Show more